Wind_Speed
21 20 20 22 27 28 26 25 22 20 17 16 16 16 17 16 15 15 16 17 18 19 17 15 13 13 13 8 5 6 7 4 3 10 10 7 3 2 3 4 4 6 4 16 15 14 8
24 23 22 22 20 23 28 28 26 22 23 19 17 16 17 16 14 15 16 17 17 18 15 13 12 12 11 5 2 4 11 1 5 9 6 6 5 13 9 6 4 18 14 11 11 14 7
28 27 25 25 22 22 21 26 29 28 23 22 18 17 17 16 14 15 15 16 17 16 13 11 11 12 14 12 3 4 6 2 3 8 6 5 12 9 8 6 13 3 9 5 5 12 4
34 32 30 27 25 24 23 20 25 27 26 24 21 17 17 16 15 15 15 15 17 15 12 10 9 12 10 4 9 11 6 3 4 3 6 7 11 9 3 11 11 2 5 5 9 5 6
37 35 34 31 29 27 25 22 21 24 26 26 22 17 16 16 16 15 15 15 17 13 12 9 8 8 10 10 12 9 14 9 5 4 5 10 10 4 4 3 5 5 2 4 3 13 2
39 38 37 36 34 31 27 26 22 25 24 24 22 19 17 15 15 15 15 15 16 13 13 9 10 8 10 6 9 6 12 5 8 5 10 6 3 2 3 4 1 4 2 3 2 7 7
39 39 39 39 37 35 33 29 27 26 24 23 23 20 17 15 15 15 14 11 6 3 6 9 5 11 3 6 7 10 10 12 10 5 3 2 4 3 6 6 5 4 9 6 5 10 5
45 42 38 36 38 38 35 33 32 28 24 23 23 21 17 15 14 14 12 8 4 5 11 19 22 28 26 20 9 7 12 12 6 5 1 4 4 6 4 2 4 2 10 8 11 8 5
48 46 43 39 36 37 37 36 33 30 26 25 24 20 17 15 13 13 11 10 11 15 6 15 18 22 21 11 10 10 17 15 6 5 6 5 6 5 1 8 5 6 6 4 3 4 7
51 49 46 42 39 38 35 35 35 33 30 27 26 23 18 13 11 9 2 8 2 8 2 7 7 11 14 14 6 17 11 9 3 9 4 4 2 2 2 3 4 5 9 3 4 4 1
49 50 49 46 42 39 37 36 31 33 33 28 28 25 22 15 9 9 4 7 7 4 3 5 7 6 15 12 2 7 15 16 6 5 6 8 2 3 4 6 3 7 2 3 2 4 2
59 52 51 49 45 41 39 34 32 28 31 31 30 26 24 22 20 10 8 3 8 4 7 4 9 8 7 11 8 2 10 12 8 5 0 7 2 5 5 3 4 5 4 7 4 3 3
63 60 57 55 47 43 40 34 32 30 27 30 31 28 30 22 21 15 12 5 3 4 5 5 6 7 8 6 5 5 3 4 6 3 3 3 1 3 3 4 7 4 5 3 4 4 5
57 42 53 51 51 45 40 39 34 33 28 28 33 30 29 26 19 15 12 2 9 7 8 4 7 10 8 8 7 6 5 6 3 5 1 4 2 3 2 3 1 6 7 5 3 3 3
60 48 52 49 51 44 42 36 36 33 30 27 30 33 30 30 23 17 11 11 7 6 5 4 3 8 7 7 7 8 8 8 9 9 6 4 4 5 3 3 5 7 2 4 7 3 2
53 65 50 53 42 41 42 35 36 32 33 29 30 33 34 31 26 19 7 17 7 11 5 1 7 7 9 8 7 7 7 6 6 10 10 7 1 2 6 3 6 7 3 2 3 4 3
55 54 62 56 50 46 44 39 37 33 37 30 30 18 22 36 26 14 13 11 15 29 11 4 4 3 9 8 10 7 10 7 9 4 10 5 4 4 4 3 6 1 2 1 4 4 4
57 54 55 61 57 53 50 44 34 40 39 36 31 9 25 43 12 13 16 12 15 23 16 7 5 9 9 10 8 8 8 8 13 17 11 8 6 4 10 15 4 4 7 6 5 4 0
59 55 52 53 51 51 52 38 33 42 46 45 22 14 33 43 12 12 8 20 21 12 6 6 6 7 4 7 6 6 6 2 11 6 7 7 1 2 6 5 3 7 6 4 5 4 6
61 54 52 54 48 52 39 38 42 45 49 49 18 9 15 29 34 22 19 15 17 23 21 14 8 6 4 2 1 6 3 0 4 7 16 13 4 7 7 7 3 2 3 4 5 3 4
61 55 52 51 53 43 39 42 45 43 53 53 20 10 19 14 20 18 21 15 21 14 17 14 10 15 9 5 2 6 4 1 3 11 3 6 5 4 5 3 2 1 2 2 5 5 6
60 55 53 53 51 44 40 44 44 51 54 53 20 8 25 6 25 19 21 23 26 20 10 17 12 11 8 7 7 8 8 5 5 1 4 2 4 1 3 2 2 2 5 5 5 3 5
61 55 52 51 47 42 42 45 50 51 49 27 37 24 24 18 18 17 23 24 27 20 18 35 13 15 5 9 11 18 21 22 13 8 3 4 6 4 4 4 4 5 7 6 5 3 4
55 50 48 49 46 43 43 40 48 51 52 20 40 18 15 10 13 21 24 24 27 20 19 23 35 12 6 23 28 25 25 19 14 6 7 6 5 3 3 3 2 7 5 4 8 5 6
48 46 47 45 42 43 40 43 47 44 54 44 19 27 7 5 12 15 25 26 21 28 15 27 12 20 32 9 4 5 5 5 5 7 6 2 5 2 4 3 4 5 3 5 5 1 3
44 44 44 41 40 42 43 43 41 44 57 59 39 32 3 1 12 23 22 25 18 13 13 6 11 23 19 3 4 5 5 5 4 3 6 6 5 4 2 4 6 7 4 3 6 2 5
41 41 41 41 43 42 41 40 37 46 55 57 46 35 5 6 12 37 19 23 30 8 10 4 10 6 5 3 3 3 3 7 6 8 4 3 3 5 2 2 7 8 7 3 5 6 9
38 38 38 39 40 40 41 41 41 49 48 44 43 37 20 7 16 11 31 32 29 28 8 8 7 1 3 3 3 4 3 5 4 6 7 7 6 3 3 2 6 8 4 7 7 12 17
34 35 34 33 36 39 39 38 47 38 44 45 29 35 22 10 10 10 15 26 47 36 22 17 10 7 6 4 1 4 2 2 5 3 3 1 6 6 8 6 6 9 6 21 20 18 14
Wind_Direction
263 263 265 262 256 255 258 266 261 258 267 280 294 304 309 309 302 306 311 319 322 326 327 322 321 319 315 305 277 358 358 10 135 152 175 203 287 275 259 261 324 211 200 169 167 190 208
254 258 261 262 262 260 255 256 261 261 261 268 283 296 304 307 300 302 307 316 318 321 322 315 316 312 305 292 29 10 16 18 137 167 186 228 313 314 283 270 178 297 164 135 167 198 156
253 252 252 258 259 260 263 257 254 257 258 264 268 285 296 302 296 298 304 313 314 316 315 308 311 304 288 237 196 271 357 30 139 179 220 283 322 299 348 316 317 234 104 67 213 202 194
254 252 252 252 254 257 259 260 256 257 254 259 264 273 289 296 295 294 300 308 309 310 303 298 301 301 268 185 232 250 237 181 156 231 290 325 335 313 325 313 336 51 80 133 232 178 263
252 250 251 251 252 253 256 259 264 259 252 251 256 264 280 293 297 293 296 304 303 304 290 284 286 284 269 215 225 230 237 237 243 251 305 305 316 318 332 47 353 2 171 190 175 216 210
255 255 250 249 250 249 250 252 263 266 254 248 251 257 273 286 294 292 297 305 303 298 274 273 256 292 244 222 230 203 224 222 240 254 263 284 327 32 24 71 235 329 7 310 225 201 171
254 252 253 250 247 246 244 245 247 253 253 244 245 251 264 280 290 291 299 317 320 323 263 231 270 251 297 318 257 227 202 203 208 168 182 313 61 240 236 214 254 359 326 277 265 251 138
251 250 248 250 249 247 243 240 240 238 241 242 238 245 254 272 284 285 298 295 142 17 294 280 268 261 261 269 300 232 179 181 150 205 126 31 248 252 306 342 351 336 252 294 288 222 123
253 249 248 245 249 245 243 241 236 236 231 228 231 235 244 263 281 282 291 313 280 266 289 287 245 241 239 239 232 248 193 191 156 183 201 162 225 231 122 283 343 304 244 250 265 62 37
250 251 246 245 241 242 240 242 241 233 231 219 221 227 229 245 271 257 357 9 236 191 335 270 198 237 222 224 274 229 232 185 162 196 215 233 240 161 351 294 203 260 249 270 273 71 140
242 241 249 242 240 240 241 236 237 234 226 219 214 220 219 224 219 205 114 35 105 138 354 246 175 200 191 176 207 205 220 219 187 189 118 246 199 135 267 236 300 230 172 208 342 76 86
245 238 241 242 239 240 241 237 228 231 223 214 208 213 216 216 222 192 184 104 146 59 250 275 153 178 140 189 244 272 190 214 173 136 75 231 186 165 217 303 260 307 40 32 48 74 47
240 241 240 237 239 241 234 234 227 226 224 210 202 206 216 218 226 217 228 170 98 197 300 207 175 158 171 178 229 192 211 140 142 95 254 235 210 289 79 332 2 82 63 353 354 16 211
231 241 231 231 234 235 237 230 227 221 219 213 199 201 215 219 208 202 214 142 216 222 245 315 163 164 173 177 227 205 185 220 215 112 137 169 29 324 81 111 347 278 152 156 226 204 267
229 233 228 232 225 228 230 232 226 223 212 213 198 199 215 214 199 200 184 214 195 222 205 229 129 149 204 203 186 179 191 204 198 169 156 157 222 296 238 135 106 307 246 177 105 358 12
235 230 225 220 210 221 223 224 222 214 203 203 198 206 213 203 200 195 206 224 208 237 9 311 187 175 181 205 163 175 197 199 206 194 149 203 21 227 288 235 168 171 193 68 18 137 240
231 231 224 226 228 231 225 222 220 214 204 190 198 198 207 203 190 194 211 219 218 255 291 296 227 233 204 181 193 180 211 238 193 111 119 129 121 297 297 200 213 47 248 128 122 140 170
228 226 228 226 227 230 227 217 219 212 197 189 197 197 182 193 167 215 220 201 237 255 257 261 286 228 210 188 190 200 201 218 196 146 155 196 144 169 209 223 313 214 228 146 121 229 123
226 223 222 220 219 206 211 205 212 200 196 189 194 183 181 190 188 213 210 215 228 240 200 222 249 207 212 171 172 172 169 203 163 131 156 176 183 68 343 321 273 209 195 179 111 88 193
222 218 216 214 215 208 202 202 205 201 194 193 186 172 170 190 212 199 192 201 210 238 248 263 277 311 253 174 170 151 137 316 137 144 194 149 136 162 188 206 187 240 228 157 130 113 184
216 212 210 209 205 201 203 202 210 198 193 196 201 195 181 191 207 204 191 193 209 228 211 216 255 237 245 173 129 155 114 68 58 135 135 140 168 156 195 196 173 180 305 259 170 193 160
210 204 205 204 203 204 207 208 215 206 192 201 201 191 172 207 200 197 189 203 206 213 229 217 242 259 198 175 177 192 139 173 194 132 119 38 190 176 207 73 63 218 263 265 264 206 231
200 198 201 205 206 201 206 209 217 205 190 204 217 222 182 208 183 188 202 192 213 205 217 236 215 238 212 216 163 192 171 185 162 143 131 124 135 116 234 6 9 351 233 216 234 222 184
189 192 197 196 194 200 203 206 201 205 200 198 210 217 204 194 192 202 190 193 207 204 211 209 233 233 210 137 109 92 77 74 89 68 134 133 106 102 187 39 26 240 283 218 105 35 86
180 186 190 192 194 198 195 196 200 207 199 202 203 209 266 198 189 195 198 199 201 211 209 230 244 232 164 131 74 68 356 24 3 39 47 114 121 101 136 186 293 298 240 176 140 31 334
178 181 185 186 189 190 191 198 198 204 198 204 209 202 317 135 217 186 195 195 196 197 218 196 225 187 175 102 88 132 172 172 163 118 65 67 68 117 132 140 201 238 248 157 107 139 188
169 174 176 180 184 187 194 198 199 199 199 206 212 223 265 286 214 183 194 202 194 174 195 158 163 178 129 95 103 134 212 163 154 164 173 45 19 143 114 192 286 246 243 111 109 223 150
163 168 174 180 186 190 191 195 198 193 196 200 208 222 228 268 292 211 196 198 192 196 176 164 119 15 88 85 136 183 128 211 107 166 172 157 141 179 104 75 274 200 133 158 187 136 131
158 167 174 180 188 189 191 194 182 186 192 192 201 217 215 252 278 283 248 213 211 199 179 168 175 147 146 102 12 105 109 89 133 202 135 165 177 177 174 211 228 185 173 143 144 141 140
Height
1528 1529 1530 1531 1532 1533 1534 1535 1536 1538 1539 1539 1538 1537 1536 1535 1534 1533 1532 1530 1528 1525 1521 1519 1516 1514 1513 1511 1506 1504 1503 1502 1502 1502 1504 1507 1507 1507 1507 1503 1502 1503 1499 1499 1503 1504 1502
1521 1523 1524 1526 1527 1527 1528 1530 1532 1534 1535 1535 1535 1534 1533 1532 1531 1531 1529 1528 1526 1523 1519 1517 1515 1513 1513 1512 1505 1504 1504 1503 1502 1503 1505 1507 1506 1506 1504 1502 1502 1495 1496 1499 1502 1499 1502
1515 1517 1518 1520 1521 1522 1523 1523 1526 1528 1530 1531 1531 1531 1530 1529 1528 1528 1527 1525 1523 1521 1518 1515 1513 1512 1511 1505 1504 1503 1504 1503 1503 1504 1506 1507 1507 1506 1503 1500 1498 1497 1501 1504 1502 1500 1502
1509 1510 1512 1513 1514 1517 1517 1518 1519 1522 1525 1527 1527 1527 1527 1526 1525 1525 1524 1522 1521 1518 1516 1514 1512 1512 1505 1503 1501 1500 1503 1504 1504 1505 1506 1506 1505 1503 1502 1501 1496 1496 1495 1517 1505 1506 1501
1498 1501 1504 1507 1508 1510 1512 1512 1514 1516 1519 1522 1522 1523 1524 1523 1523 1522 1521 1519 1518 1516 1515 1513 1512 1511 1503 1501 1500 1499 1501 1501 1503 1504 1504 1505 1505 1503 1501 1504 1510 1504 1513 1506 1507 1506 1501
1489 1492 1493 1497 1500 1503 1505 1505 1508 1512 1514 1516 1518 1519 1520 1520 1519 1519 1518 1517 1515 1513 1513 1511 1511 1513 1500 1499 1498 1498 1499 1500 1502 1504 1506 1505 1504 1505 1506 1511 1526 1511 1506 1502 1503 1500 1502
1479 1481 1484 1489 1491 1495 1498 1499 1502 1506 1509 1511 1513 1514 1517 1517 1516 1516 1517 1517 1516 1513 1510 1505 1505 1500 1497 1498 1496 1495 1497 1499 1502 1504 1507 1504 1510 1514 1507 1505 1502 1501 1507 1509 1502 1493 1499
1468 1472 1474 1477 1481 1486 1489 1493 1496 1499 1503 1506 1508 1511 1512 1514 1514 1514 1515 1515 1513 1515 1508 1500 1498 1497 1495 1498 1499 1493 1496 1499 1500 1505 1505 1510 1513 1503 1500 1499 1504 1509 1510 1505 1495 1487 1494
1458 1460 1466 1467 1473 1476 1479 1484 1487 1492 1496 1500 1504 1505 1509 1510 1511 1512 1513 1514 1513 1513 1511 1491 1489 1490 1491 1495 1494 1491 1494 1495 1498 1503 1504 1509 1503 1499 1501 1502 1508 1507 1504 1501 1499 1489 1493
1446 1449 1454 1459 1461 1467 1470 1475 1480 1485 1489 1493 1498 1501 1504 1507 1513 1510 1511 1510 1507 1511 1515 1493 1484 1484 1487 1491 1491 1488 1490 1494 1496 1501 1501 1502 1496 1498 1500 1504 1504 1512 1491 1493 1492 1501 1514
1433 1437 1442 1448 1452 1456 1461 1465 1471 1476 1482 1487 1492 1497 1500 1504 1505 1507 1510 1509 1509 1511 1535 1479 1479 1478 1480 1486 1484 1484 1487 1490 1494 1495 1498 1503 1497 1501 1502 1500 1494 1498 1490 1493 1492 1504 1505
1417 1423 1431 1435 1441 1447 1452 1457 1462 1469 1474 1480 1487 1491 1497 1498 1500 1505 1507 1508 1510 1521 1523 1477 1471 1474 1478 1481 1481 1482 1484 1487 1488 1492 1494 1496 1494 1493 1495 1492 1492 1491 1491 1498 1504 1511 1538
1403 1411 1417 1423 1429 1437 1444 1448 1454 1462 1467 1473 1480 1487 1490 1495 1498 1502 1505 1508 1517 1517 1481 1474 1472 1471 1474 1479 1481 1481 1483 1487 1495 1505 1506 1496 1494 1489 1491 1495 1490 1490 1506 1527 1530 1545 1544
1389 1395 1401 1411 1417 1425 1434 1440 1446 1454 1460 1468 1474 1481 1485 1491 1496 1500 1503 1506 1509 1490 1480 1466 1464 1469 1476 1476 1478 1480 1483 1488 1487 1491 1505 1508 1515 1495 1490 1496 1502 1502 1504 1533 1530 1548 1528
1374 1382 1389 1398 1406 1415 1423 1431 1439 1447 1453 1465 1469 1475 1477 1485 1492 1496 1501 1497 1489 1482 1468 1468 1464 1473 1476 1473 1474 1480 1483 1485 1481 1485 1502 1508 1506 1495 1491 1490 1497 1503 1507 1500 1527 1535 1536
1359 1369 1378 1387 1394 1405 1412 1421 1431 1440 1447 1458 1462 1468 1469 1480 1488 1493 1496 1479 1476 1467 1464 1463 1470 1465 1476 1473 1476 1478 1479 1473 1477 1477 1480 1496 1507 1497 1492 1489 1488 1497 1494 1511 1521 1532 1535
1344 1353 1364 1374 1383 1393 1403 1413 1424 1431 1443 1450 1461 1463 1460 1474 1484 1489 1476 1472 1469 1462 1468 1467 1464 1463 1463 1468 1468 1476 1474 1468 1467 1475 1479 1490 1499 1505 1496 1491 1492 1494 1498 1498 1506 1523 1530
1328 1339 1349 1361 1373 1383 1392 1405 1413 1425 1436 1444 1450 1453 1454 1465 1477 1473 1463 1467 1468 1462 1468 1468 1461 1460 1459 1459 1464 1468 1470 1465 1461 1466 1480 1482 1495 1518 1497 1480 1480 1487 1492 1497 1528 1515 1530
1313 1325 1337 1348 1360 1369 1382 1394 1403 1414 1422 1433 1436 1446 1451 1455 1458 1458 1459 1461 1466 1460 1461 1462 1458 1451 1447 1453 1463 1460 1461 1460 1459 1463 1473 1478 1495 1518 1507 1495 1487 1486 1483 1486 1496 1512 1516
1298 1312 1325 1337 1348 1361 1372 1385 1395 1403 1414 1426 1430 1434 1442 1446 1438 1445 1452 1454 1458 1454 1460 1459 1455 1451 1451 1450 1450 1459 1460 1460 1461 1456 1464 1469 1484 1495 1512 1496 1486 1485 1479 1482 1491 1519 1512
1285 1300 1314 1327 1339 1352 1365 1376 1384 1394 1405 1418 1416 1412 1415 1420 1427 1431 1441 1445 1453 1451 1449 1451 1452 1451 1454 1455 1453 1453 1457 1463 1462 1461 1467 1471 1483 1481 1483 1480 1479 1481 1481 1477 1485 1488 1502
1274 1290 1305 1319 1331 1344 1356 1366 1374 1384 1398 1406 1402 1399 1406 1410 1423 1428 1429 1431 1440 1442 1441 1442 1447 1441 1445 1447 1447 1455 1452 1462 1461 1463 1463 1467 1484 1481 1483 1484 1482 1481 1480 1480 1479 1476 1481
1265 1282 1298 1311 1324 1336 1348 1357 1366 1375 1387 1388 1396 1395 1398 1405 1411 1422 1411 1419 1425 1436 1433 1435 1439 1440 1441 1438 1437 1438 1439 1446 1450 1459 1468 1474 1486 1496 1494 1492 1488 1502 1483 1476 1473 1471 1472
1260 1277 1292 1305 1318 1329 1339 1349 1360 1369 1377 1385 1391 1397 1392 1395 1400 1399 1410 1414 1417 1424 1430 1427 1433 1438 1435 1434 1438 1441 1447 1452 1454 1457 1459 1474 1482 1496 1505 1501 1513 1478 1468 1467 1473 1475 1472
1259 1274 1288 1300 1312 1323 1334 1345 1355 1362 1372 1379 1385 1392 1390 1392 1394 1400 1403 1406 1419 1422 1422 1425 1425 1428 1431 1431 1447 1457 1470 1464 1461 1461 1462 1464 1480 1497 1505 1507 1491 1473 1467 1469 1470 1482 1476
1259 1273 1285 1297 1308 1319 1330 1341 1350 1357 1368 1378 1382 1389 1388 1390 1382 1396 1402 1403 1407 1411 1421 1421 1423 1425 1424 1431 1448 1459 1472 1467 1471 1467 1466 1470 1475 1487 1505 1505 1509 1477 1463 1462 1463 1492 1476
1262 1273 1284 1295 1306 1316 1326 1336 1344 1353 1363 1371 1378 1385 1389 1391 1381 1385 1388 1391 1400 1405 1413 1418 1418 1422 1418 1439 1457 1463 1465 1453 1470 1474 1480 1488 1491 1497 1515 1510 1491 1465 1461 1462 1482 1486 1472
1266 1276 1286 1295 1304 1313 1323 1332 1340 1350 1361 1369 1377 1385 1393 1390 1380 1379 1383 1387 1392 1396 1404 1407 1417 1418 1426 1438 1445 1453 1462 1457 1462 1461 1468 1475 1490 1501 1498 1506 1489 1456 1460 1469 1466 1466 1468
1270 1279 1287 1295 1304 1312 1320 1329 1339 1349 1361 1368 1376 1383 1389 1390 1382 1377 1377 1379 1382 1389 1397 1402 1402 1408 1413 1429 1439 1443 1452 1458 1458 1472 1456 1467 1463 1475 1475 1473 1454 1454 1454 1456 1460 1462 1466